This is the latest recevied weather packets stored in our database for station/object WAYLND-WX. If no packets are shown the sender has not sent any weather packets the latest 10 day(s).
| Time | Temp. | Humidity | Pressure | Rain* | Wind** | Luminosity | Snow |
|---|---|---|---|---|---|---|---|
| 1777668341 | 6.67° C | 62% | 988.9 hPa | 0 mm | - | - | - |
| 1777667459 | 6.11° C | 63% | 989 hPa | 0 mm | - | - | - |
| 1777666541 | 6.11° C | 63% | 989 hPa | 0 mm | - | - | - |
| 1777665668 | 6.11° C | 63% | 989 hPa | 0 mm | - | - | - |
| 1777664740 | 6.67° C | 55% | 988.7 hPa | 0 mm | - | - | - |
| 1777663858 | 6.67° C | 55% | 988.7 hPa | 0 mm | - | - | - |
| 1777662942 | 7.22° C | 55% | 988.6 hPa | 0 mm | - | - | - |
| 1777662064 | 7.22° C | 55% | 988.6 hPa | 0 mm | - | - | - |
| 1777661141 | 7.78° C | 54% | 988.3 hPa | 0 mm | - | - | - |
| 1777660257 | 7.22° C | 57% | 988.4 hPa | 0 mm | - | - | - |
| 1777659341 | 7.78° C | 57% | 988.4 hPa | 0 mm | - | - | - |
| 1777658472 | 7.22° C | 57% | 988.4 hPa | 0 mm | - | - | - |
| 1777657542 | 7.22° C | 60% | 989.3 hPa | 0 mm | - | - | - |
| 1777656657 | 6.67° C | 55% | 988.7 hPa | 0 mm | - | - | - |
| 1777655741 | 7.22° C | 55% | 988.7 hPa | 0 mm | - | - | - |
| 1777654868 | 7.78° C | 55% | 988.7 hPa | 0 mm | - | - | - |
| 1777653941 | 7.22° C | 56% | 987.4 hPa | 0 mm | - | - | - |
| 1777653061 | 7.78° C | 58% | 987.7 hPa | 0 mm | - | - | - |
| 1777652141 | 7.22° C | 58% | 987.7 hPa | 0 mm | - | - | - |
| 1777651276 | 6.67° C | 58% | 987.7 hPa | 0 mm | - | - | - |
| 1777650340 | 6.67° C | 64% | 987.8 hPa | 0 mm | - | - | - |
| 1777649457 | 6.67° C | 57% | 988.4 hPa | 0 mm | - | - | - |
| 1777648541 | 7.22° C | 57% | 988.5 hPa | 0 mm | - | - | - |
| 1777647671 | 7.22° C | 57% | 988.5 hPa | 0 mm | - | - | - |
| 1777646741 | 6.67° C | 65% | 987.7 hPa | 0 mm | - | - | - |
* Rain latest hour (hover to see other rain measurements)
** Current wind speed in m/s (hover to see current wind gust speed)